Location: ??????????
(54.8537°N, 38.8755°E)
Time: 20:29:43
(UTC+00:00)

Tiros 1 despin weight - Pass Details

Date: 18 September 2024
Orbit: 572 x 613 km, 48.2° (Epoch: 13 October)

Event Time Altitude Azimuth Distance (km) Brightness Sun altitude
Exits shadow 23:37:57 15° 120° (ESE) 1,661 ? -26.9°
Drops below altitude 10° 23:39:14 10° 106° (ESE) 1,975 ? -26.8°
Sets 23:42:03 0° 90° (E) 2,885 ? -26.5°
